(511) Davida(511) Davida Epoch 2008 Nov. 30.0 TT = JDT 2454800.5 Goffin M 27.78663 (2000.0) P Q n 0.17479791 Peri. 338.35143 +0.05596018 -0.96354110 a 3.1679518 Node 107.66490 +0.95161212 -0.02783526 e 0.1859533 Incl. 15.93761 +0.30216359 +0.26610852 P 5.64 H 6.22 G 0.16 U 0 From 1127 observations at 73 oppositions, 1903-1997, mean residual 0".54.An explanation of the orbital elements is available.
These orbital elements are also available in forms suitable for loading into a number of popular planetarium-type software programs.
Personalized ephemerides for this object (and others) can be generated using the MPES.
Date TT R. A. (2000) Decl. Delta r Elong. Phase V 2009 01 01 10 17.18 +20 56.7 1.967 2.718 131.3 15.8 10.7 2009 01 06 10 16.87 +21 39.4 1.927 2.725 136.4 14.4 10.6 2009 01 11 10 15.90 +22 25.5 1.892 2.732 141.7 12.9 10.5 2009 01 16 10 14.28 +23 14.2 1.862 2.739 146.9 11.3 10.4 2009 01 21 10 12.06 +24 04.7 1.838 2.746 152.1 9.7 10.4 2009 01 26 10 09.27 +24 55.8 1.820 2.754 157.0 8.0 10.3 2009 01 31 10 06.01 +25 46.6 1.810 2.761 161.4 6.5 10.2 2009 02 05 10 02.37 +26 35.7 1.806 2.769 164.6 5.4 10.2 2009 02 10 09 58.48 +27 22.0 1.809 2.776 165.9 5.0 10.1 2009 02 15 09 54.46 +28 04.5 1.819 2.784 164.7 5.4 10.2 2009 02 20 09 50.45 +28 42.4 1.837 2.792 161.5 6.5 10.3 2009 02 25 09 46.58 +29 15.0 1.861 2.800 157.2 7.9 10.4 2009 03 02 09 42.99 +29 41.9 1.892 2.808 152.4 9.4 10.5 2009 03 07 09 39.78 +30 02.9 1.928 2.816 147.4 10.9 10.6 2009 03 12 09 37.06 +30 18.0 1.971 2.824 142.4 12.4 10.7 2009 03 17 09 34.89 +30 27.6 2.019 2.832 137.4 13.8 10.8 2009 03 22 09 33.31 +30 31.7 2.071 2.840 132.4 15.0 10.9 2009 03 27 09 32.36 +30 30.9 2.128 2.849 127.6 16.1 11.0 2009 04 01 09 32.05 +30 25.6 2.189 2.857 122.9 17.1 11.1 2009 04 06 09 32.37 +30 16.0 2.252 2.866 118.3 17.9 11.2 2009 04 11 09 33.31 +30 02.8 2.318 2.874 113.9 18.6 11.3 2009 04 16 09 34.82 +29 46.2 2.387 2.883 109.6 19.1 11.4 2009 04 21 09 36.89 +29 26.7 2.457 2.892 105.4 19.6 11.5 2009 04 26 09 39.46 +29 04.3 2.529 2.900 101.4 19.9 11.5 2009 05 01 09 42.52 +28 39.6 2.602 2.909 97.4 20.1 11.6